Location: Gunnison Valley Observatory
(38.5087°N, 106.9386°W)
Time: 00:49:32
(UTC-06:00)

Amateur Radio Satellites - All Passes

Search period start: 03 September 2015 00:19
Search period end: 04 September 2015 00:19
Location: Gunnison Valley Observatory, 38.5087°N, 106.9386°W

Satellite Date Start Highest point End Downlink Frequencies (MHz)
Time Altitude Azimuth
DX 1 03 Sep 00:20:27 00:23:12 16° 268° (W) 00:25:46 434.975-435.025
BEESAT 2 03 Sep 00:22:49 00:26:50 66° 242° (WSW) 00:30:47 435.950
SPROUT 03 Sep 00:29:30 00:33:46 72° 76° (ENE) 00:38:05 437.525
UKube-1 03 Sep 00:29:46 00:32:07 14° 269° (W) 00:34:16 .
NANOSAT C BR1 03 Sep 00:33:18 00:37:36 78° 282° (WNW) 00:41:51 145.865
QB50P2 03 Sep 00:34:11 00:38:30 72° 284° (WNW) 00:42:45 145.880/145.840
DANDE 03 Sep 00:40:31 00:44:00 80° 98° (E) 00:48:45 436.750
CUBEBUG 1 03 Sep 00:44:26 00:47:53 23° 266° (W) 00:51:17 437.445
ESTCUBE 1 03 Sep 00:47:09 00:50:21 18° 268° (W) 00:53:24 437.505/2401.250
QB50P1 03 Sep 00:48:06 00:52:17 51° 286° (WNW) 00:56:25 145.935-145.965
AISAT 03 Sep 00:53:35 00:55:04 11° 271° (W) 00:56:18 437.250
SO-50 03 Sep 01:03:30 01:08:16 89° 116° (ESE) 01:13:13 436.795
UNISAT 6 03 Sep 01:11:39 01:13:35 12° 296° (WNW) 01:15:16 437.425
ITUPSAT 1 03 Sep 01:13:01 01:16:29 21° 67° (ENE) 01:20:06 437.325
AIST 2 03 Sep 01:15:07 01:19:18 84° 58° (ENE) 01:23:25 435.215
Oscar 19 03 Sep 01:20:54 01:23:13 13° 89° (E) 01:25:49 437.125/150
TISAT 1 03 Sep 01:24:18 01:28:21 46° 261° (W) 01:32:26 437.305
AUBIESAT-1 03 Sep 01:28:37 01:30:02 12° 301° (WNW) 01:31:16 437.475
CUSAT 1 03 Sep 01:39:17 01:42:08 16° 299° (WNW) 01:45:15 437.405
BEESAT 03 Sep 01:43:30 01:47:59 43° 72° (ENE) 01:52:30 436.000
BUGSAT 1 03 Sep 01:48:28 01:51:34 19° 292° (WNW) 01:54:31 437.445
DUCHIFAT 1 03 Sep 01:52:57 01:54:29 11° 295° (WNW) 01:55:47 145.980
POLYITAN 1 03 Sep 01:53:26 01:54:38 11° 295° (WNW) 01:55:35 437.675
POPSAT HIP 1 03 Sep 01:55:10 01:56:14 11° 295° (WNW) 01:57:02 437.405
PCSat 03 Sep 01:57:50 02:03:15 84° 298° (WNW) 02:08:43 145.827
Cosmos 2504 03 Sep 02:06:07 02:10:08 13° 302° (WNW) 02:13:35 435.465 / 435.565
VERMONT LUNAR 03 Sep 02:07:55 02:10:07 19° 150° (SSE) 02:12:21 437.305
SWISSCUBE 03 Sep 02:09:30 02:14:16 89° 94° (E) 02:19:04 437.505
KKS-1 03 Sep 02:17:28 02:19:57 15° 66° (ENE) 02:22:37 437.445
Gurwin Techsat 1B 03 Sep 02:20:37 02:23:40 16° 90° (E) 02:26:58 435.225
RS-15 03 Sep 02:21:22 02:33:04 63° 246° (WSW) 02:45:00 29.354- 29.394
GONETS M04 03 Sep 02:22:25 02:30:14 41° 88° (E) 02:38:15
ITAMSAT 1 03 Sep 02:25:04 02:27:21 13° 89° (E) 02:29:55 435.822/435.867
SO-50 03 Sep 02:46:52 02:49:35 14° 321° (NW) 02:52:11 436.795
ITUPSAT 1 03 Sep 02:49:41 02:54:09 39° 262° (W) 02:58:36 437.325
Oscar 19 03 Sep 02:57:58 03:03:09 67° 286° (WNW) 03:08:16 437.125/150
BEESAT 03 Sep 03:22:44 03:26:04 18° 268° (W) 03:29:13 436.000
STARS 03 Sep 03:26:56 03:31:11 50° 74° (ENE) 03:35:30 437.465
Cosmos 2499 03 Sep 03:28:02 03:34:48 29° 84° (E) 03:42:05 435.465 / 435.565
JAS-2 03 Sep 03:35:27 03:41:48 42° 95° (E) 03:47:29 435.910
VERMONT LUNAR 03 Sep 03:43:16 03:46:16 85° 166° (SSE) 03:49:16 437.305
PCSat 03 Sep 03:44:44 03:47:36 14° 318° (NW) 03:50:15 145.827
KKS-1 03 Sep 03:51:53 03:56:12 49° 260° (W) 04:00:34 437.445
Gurwin Techsat 1B 03 Sep 03:58:52 04:04:07 59° 287° (WNW) 04:09:19 435.225
ITAMSAT 1 03 Sep 04:02:15 04:07:25 67° 286° (WNW) 04:12:34 435.822/435.867
GONETS M04 03 Sep 04:19:00 04:27:07 41° 287° (WNW) 04:35:09
MOZHAYETS 4 03 Sep 04:22:13 04:26:37 46° 73° (ENE) 04:31:02
O/OREOS (USA 219) 03 Sep 04:23:23 04:27:34 34° 62° (ENE) 04:31:47 437.305
RS-15 03 Sep 04:39:53 04:43:46 11° 262° (W) 04:46:13 29.354- 29.394
HORYU 2 03 Sep 04:56:13 05:00:36 55° 100° (E) 05:04:57 437.375
AO-7 03 Sep 05:00:57 05:09:12 65° 104° (ESE) 05:17:24 29.400- 29.500
STARS 03 Sep 05:05:39 05:07:59 14° 270° (W) 05:10:06 437.465
PHONESAT 2.4 03 Sep 05:14:00 05:17:18 47° 157° (SSE) 05:20:35 2401.200-2431.200
Cosmos 2499 03 Sep 05:19:03 05:27:26 60° 282° (WNW) 05:36:12 435.465 / 435.565
VERMONT LUNAR 03 Sep 05:19:51 05:22:47 54° 0° (N) 05:25:43 437.305
JAS-2 03 Sep 05:20:45 05:26:41 31° 295° (WNW) 05:31:56 435.910
MOZHAYETS 4 03 Sep 06:01:13 06:04:07 16° 269° (W) 06:06:50
O/OREOS (USA 219) 03 Sep 06:03:17 06:06:49 21° 258° (WSW) 06:10:12 437.305
Cubesat XI-IV 03 Sep 06:04:08 06:05:05 11° 87° (E) 06:06:26 437.490
CUBESAT XI-V 03 Sep 06:22:58 06:27:32 77° 77° (ENE) 06:32:09 437.345
HORYU 2 03 Sep 06:34:31 06:36:48 14° 295° (WNW) 06:38:52 437.375
CUTE-I 03 Sep 06:45:19 06:49:53 29° 95° (E) 06:54:32 437.470
PHONESAT 2.4 03 Sep 06:51:45 06:55:09 65° 353° (N) 06:58:32 2401.200-2431.200
AO-7 03 Sep 06:54:40 07:01:30 29° 301° (WNW) 07:08:05 29.400- 29.500
VERMONT LUNAR 03 Sep 06:56:19 06:59:17 77° 197° (SSW) 07:02:15 437.305
STRAND 1 03 Sep 07:15:40 07:20:43 71° 74° (ENE) 07:25:49 437.568
PRISM 03 Sep 07:17:13 07:21:09 48° 74° (ENE) 07:25:07 437.425
Cosmos 2499 03 Sep 07:20:45 07:23:01 11° 306° (NW) 07:24:32 435.465 / 435.565
Cubesat XI-IV 03 Sep 07:40:37 07:45:57 83° 286° (WNW) 07:51:18 437.490
YUBILEINY 03 Sep 07:46:11 07:54:17 40° 73° (ENE) 08:02:26 435.215
AIST 1 03 Sep 07:46:56 07:50:45 34° 92° (E) 07:54:37
BRITE-PL 03 Sep 08:10:23 08:15:38 41° 96° (E) 08:21:00 437.365/2234.400
CUTE-I 03 Sep 08:25:14 08:29:59 33° 291° (WNW) 08:34:39 437.470
CANX-2 03 Sep 08:25:40 08:25:45 10° 88° (E) 08:26:08 2200.000
GOMX 1 03 Sep 08:25:52 08:30:47 34° 95° (E) 08:35:44 467.674
ISS 03 Sep 08:26:18 08:29:33 77° 324° (NW) 08:32:49 145.825
DOVE 4 03 Sep 08:27:01 08:30:50 20° 90° (E) 08:34:45 437.250
PHONESAT 2.4 03 Sep 08:29:47 08:33:11 71° 9° (N) 08:36:35 2401.200-2431.200
Cosmos 2491 03 Sep 08:33:07 08:40:58 41° 88° (E) 08:48:58 435.465 / 435.565
VERMONT LUNAR 03 Sep 08:33:25 08:35:23 16° 211° (SSW) 08:37:19 437.305
SEEDS 03 Sep 08:41:20 08:42:20 11° 89° (E) 08:43:35 437.485
CINEMA 3 03 Sep 08:53:31 08:56:07 15° 88° (E) 08:58:56 145.822/145.860
PRISM 03 Sep 08:55:13 08:56:55 12° 270° (W) 08:58:23 437.425
COMPASS 1 03 Sep 08:57:47 08:59:44 13° 90° (E) 09:01:54 437.405
STRAND 1 03 Sep 08:58:29 09:00:33 12° 272° (W) 09:02:16 437.568
AAUSAT CUBESAT 2 03 Sep 09:05:27 09:07:29 14° 90° (E) 09:09:43 437.432
HO-68 03 Sep 09:08:20 09:15:01 41° 98° (E) 09:21:44 435.675
Cubesat XI-IV 03 Sep 09:24:18 09:25:20 10° 300° (WNW) 09:26:01 437.490
AIST 1 03 Sep 09:25:40 09:28:34 17° 288° (WNW) 09:31:19
SO-50 03 Sep 09:36:32 09:41:23 54° 55° (NE) 09:46:07 436.795
DANDE 03 Sep 09:38:43 09:42:17 14° 61° (ENE) 09:46:35 436.750
ANTELSAT 03 Sep 09:41:08 09:43:43 15° 66° (ENE) 09:46:29 437.575/2403.000
YUBILEINY 03 Sep 09:43:01 09:51:11 43° 272° (W) 09:59:11 435.215
CUTE 1.7 + AOD 2 03 Sep 09:43:27 09:47:42 82° 104° (ESE) 09:51:53 437.475
BRITE-PL 03 Sep 09:49:15 09:53:56 27° 291° (WNW) 09:58:36 437.365/2234.400
ZACube-1 03 Sep 09:50:21 09:52:20 13° 89° (E) 09:54:31 437.345
FUNcube-1 03 Sep 09:54:12 09:56:27 14° 89° (E) 09:58:53 145.935
Cosmos 2504 03 Sep 09:56:56 10:04:28 36° 71° (ENE) 10:11:43 435.465 / 435.565
CANX-2 03 Sep 09:57:59 10:02:09 59° 285° (WNW) 10:06:16 2200.000
CUBEBUG 2 03 Sep 10:00:54 10:05:02 32° 95° (E) 10:09:04 437.445
UWE-3 03 Sep 10:02:13 10:05:56 25° 93° (E) 10:09:37 435.000/436.395/437.385
DOVE 4 03 Sep 10:03:44 10:08:50 47° 287° (WNW) 10:13:49 437.250
GOMX 1 03 Sep 10:04:00 10:08:48 31° 290° (WNW) 10:13:31 467.674
ISS 03 Sep 10:04:28 10:06:26 15° 340° (NNW) 10:08:21 145.825
PHONESAT 2.4 03 Sep 10:07:47 10:10:58 37° 206° (SSW) 10:14:08 2401.200-2431.200
SEEDS 03 Sep 10:14:26 10:18:32 54° 285° (WNW) 10:22:35 437.485
CINEMA 3 03 Sep 10:28:53 10:33:46 56° 286° (WNW) 10:38:28 145.822/145.860
Cosmos 2491 03 Sep 10:29:45 10:37:51 41° 287° (WNW) 10:45:54 435.465 / 435.565
UNISAT 6 03 Sep 10:29:51 10:34:19 48° 73° (ENE) 10:38:53 437.425
CUSAT 1 03 Sep 10:30:45 10:38:18 45° 73° (ENE) 10:46:06 437.405
COMPASS 1 03 Sep 10:31:44 10:35:41 43° 286° (WNW) 10:39:35 437.405
Oscar 11 03 Sep 10:35:13 10:39:32 68° 101° (E) 10:43:48 145.826/435.025
AUBIESAT-1 03 Sep 10:36:45 10:41:23 56° 69° (ENE) 10:45:56 437.475
AAUSAT CUBESAT 2 03 Sep 10:39:26 10:43:21 42° 287° (WNW) 10:47:13 437.432
DELFI C3 03 Sep 10:43:15 10:47:09 52° 99° (E) 10:51:02 145.870
M-CUBED/EXP-1 PRIME 03 Sep 10:44:41 10:49:30 80° 70° (ENE) 10:54:14 437.505
PCSat 03 Sep 10:47:14 10:52:35 56° 58° (ENE) 10:57:54 145.827
HO-68 03 Sep 10:56:11 11:02:41 37° 295° (WNW) 11:09:05 435.675
TIGRISAT 03 Sep 10:56:59 11:01:41 89° 71° (ENE) 11:06:26 435.000
BUGSAT 1 03 Sep 11:01:43 11:04:41 20° 69° (ENE) 11:07:46 437.445
50 SAT 03 Sep 11:03:56 11:05:06 11° 90° (E) 11:06:30 437.505
DUCHIFAT 1 03 Sep 11:05:45 11:09:37 37° 72° (ENE) 11:13:34 145.980
POLYITAN 1 03 Sep 11:06:22 11:10:21 40° 73° (ENE) 11:14:25 437.675
AISAT 03 Sep 11:07:33 11:09:28 13° 90° (E) 11:11:38 437.250
POPSAT HIP 1 03 Sep 11:07:48 11:11:46 41° 73° (ENE) 11:15:49 437.405
ANTELSAT 03 Sep 11:15:27 11:20:03 55° 261° (W) 11:24:42 437.575/2403.000
SO-50 03 Sep 11:18:18 11:21:31 17° 250° (WSW) 11:24:30 436.795
DANDE 03 Sep 11:18:52 11:26:45 69° 79° (ENE) 11:35:17 436.750
NANOSAT C BR1 03 Sep 11:24:00 11:28:10 63° 75° (ENE) 11:32:24 145.865
ZACube-1 03 Sep 11:24:44 11:29:05 51° 286° (WNW) 11:33:18 437.345
QB50P2 03 Sep 11:25:16 11:29:29 69° 76° (ENE) 11:33:46 145.880/145.840
FUNcube-1 03 Sep 11:28:50 11:33:07 47° 286° (WNW) 11:37:17 145.935
VELOX 1 03 Sep 11:33:31 11:37:08 24° 95° (E) 11:40:49 145.980
CUBEBUG 2 03 Sep 11:37:49 11:41:33 23° 291° (WNW) 11:45:04 437.445
UWE-3 03 Sep 11:38:31 11:42:26 28° 290° (WNW) 11:46:12 435.000/436.395/437.385
QB50P1 03 Sep 11:38:51 11:43:06 84° 257° (WSW) 11:47:24 145.935-145.965
HUMSAT D 03 Sep 11:45:51 11:50:05 77° 284° (WNW) 11:54:13 437.325/437.525
Cosmos 2504 03 Sep 11:48:58 11:56:52 45° 272° (W) 12:04:10 435.465 / 435.565
DX 1 03 Sep 12:08:03 12:12:28 84° 286° (WNW) 12:16:52 434.975-435.025
UNISAT 6 03 Sep 12:08:23 12:11:24 16° 269° (W) 12:14:13 437.425
CUSAT 1 03 Sep 12:13:24 12:20:49 40° 269° (W) 12:28:09 437.405
AUBIESAT-1 03 Sep 12:13:33 12:16:21 15° 264° (W) 12:18:55 437.475
Oscar 11 03 Sep 12:14:18 12:15:12 10° 295° (WNW) 12:15:50 145.826/435.025
UKube-1 03 Sep 12:16:05 12:20:26 76° 284° (WNW) 12:24:45 .
SPROUT 03 Sep 12:19:06 12:21:18 14° 90° (E) 12:23:42 437.525
DELFI C3 03 Sep 12:20:26 12:21:48 11° 294° (WNW) 12:22:57 145.870
M-CUBED/EXP-1 PRIME 03 Sep 12:23:49 12:24:47 10° 267° (W) 12:25:24 437.505
PCSat 03 Sep 12:31:52 12:35:35 18° 254° (WSW) 12:39:06 145.827
CUBEBUG 1 03 Sep 12:33:23 12:37:49 72° 102° (ESE) 12:42:14 437.445
JUGNU 03 Sep 12:34:11 12:34:58 10° 172° (S) 12:35:48 437.505
GONETS M04 03 Sep 12:35:07 12:40:36 18° 62° (ENE) 12:46:34
Oscar 19 03 Sep 12:36:07 12:39:28 18° 65° (ENE) 12:43:01 437.125/150
50 SAT 03 Sep 12:36:15 12:39:56 43° 286° (WNW) 12:43:34 437.505
BUGSAT 1 03 Sep 12:36:22 12:39:58 29° 264° (W) 12:43:35 437.445
ESTCUBE 1 03 Sep 12:39:29 12:44:00 80° 284° (WNW) 12:48:30 437.505/2401.250
AISAT 03 Sep 12:42:02 12:46:26 54° 286° (WNW) 12:50:48 437.250
DUCHIFAT 1 03 Sep 12:42:45 12:45:35 17° 268° (W) 12:48:17 145.980
POLYITAN 1 03 Sep 12:43:47 12:46:28 16° 269° (W) 12:49:00 437.675
POPSAT HIP 1 03 Sep 12:45:14 12:47:53 15° 269° (W) 12:50:21 437.405
DANDE 03 Sep 13:03:03 13:09:31 26° 272° (W) 13:16:00 436.750
VELOX 1 03 Sep 13:09:48 13:13:40 29° 290° (WNW) 13:17:28 145.980
TISAT 1 03 Sep 13:10:13 13:13:56 29° 96° (E) 13:17:41 437.305
ISS 03 Sep 13:19:41 13:21:33 14° 20° (NNE) 13:23:27 145.825
Gurwin Techsat 1B 03 Sep 13:40:04 13:44:06 23° 67° (ENE) 13:48:16 435.225
ITAMSAT 1 03 Sep 13:41:21 13:44:50 19° 65° (ENE) 13:48:29 435.822/435.867
JAS-2 03 Sep 13:45:42 13:50:59 21° 61° (ENE) 13:56:36 435.910
BEESAT 03 Sep 13:47:10 13:48:53 12° 89° (E) 13:50:53 436.000
SPROUT 03 Sep 13:53:30 13:57:41 46° 286° (WNW) 14:01:48 437.525
BEESAT 3 03 Sep 13:58:24 14:01:49 27° 114° (ESE) 14:05:20 437.485
AO-7 03 Sep 14:10:09 14:14:40 17° 52° (NE) 14:19:34 29.400- 29.500
SWISSCUBE 03 Sep 14:11:48 14:15:42 25° 95° (E) 14:19:39 437.505
CUBEBUG 1 03 Sep 14:12:34 14:13:38 11° 296° (WNW) 14:14:27 437.445
Oscar 19 03 Sep 14:13:24 14:18:26 53° 260° (W) 14:23:32 437.125/150
BEESAT 2 03 Sep 14:14:48 14:18:24 31° 114° (ESE) 14:22:04 435.950
JUGNU 03 Sep 14:21:02 14:23:06 12° 182° (S) 14:25:09 437.505
GONETS M04 03 Sep 14:29:58 14:38:50 88° 264° (W) 14:47:42
RS-15 03 Sep 14:34:08 14:41:50 24° 103° (ESE) 14:50:15 29.354- 29.394
TISAT 1 03 Sep 14:46:12 14:49:34 22° 291° (WNW) 14:52:48 437.305
ITUPSAT 1 03 Sep 14:51:15 14:55:58 59° 101° (E) 15:00:41 437.325
ISS 03 Sep 14:55:11 14:58:26 74° 37° (NE) 15:01:41 145.825
AIST 2 03 Sep 15:12:00 15:15:27 25° 113° (ESE) 15:18:59 435.215
Cosmos 2499 03 Sep 15:12:42 15:20:57 49° 75° (ENE) 15:28:39 435.465 / 435.565
Gurwin Techsat 1B 03 Sep 15:18:48 15:23:50 42° 262° (W) 15:28:52 435.225
ITAMSAT 1 03 Sep 15:18:58 15:23:59 50° 260° (W) 15:29:01 435.822/435.867
STARS 03 Sep 15:21:30 15:21:34 10° 88° (E) 15:21:57 437.465
BEESAT 03 Sep 15:22:31 15:27:14 63° 286° (WNW) 15:31:55 436.000
JAS-2 03 Sep 15:27:28 15:35:12 84° 257° (WSW) 15:43:07 435.910
BEESAT 3 03 Sep 15:36:16 15:39:43 25° 310° (NW) 15:43:08 437.485
SRMSAT 03 Sep 15:36:40 15:38:44 12° 179° (S) 15:40:49 437.500
KKS-1 03 Sep 15:44:26 15:48:32 34° 97° (E) 15:52:38 437.445
SWISSCUBE 03 Sep 15:49:22 15:53:34 31° 290° (WNW) 15:57:42 437.505
HORYU 2 03 Sep 15:52:51 15:57:06 43° 72° (ENE) 16:01:23 437.375
BEESAT 2 03 Sep 15:53:07 15:56:29 23° 311° (NW) 15:59:48 435.950
AO-7 03 Sep 15:57:58 16:06:16 76° 70° (ENE) 16:14:37 29.400- 29.500
MOZHAYETS 4 03 Sep 16:20:50 16:22:26 12° 89° (E) 16:24:17
GONETS M04 03 Sep 16:29:33 16:34:36 16° 280° (W) 16:39:02
ITUPSAT 1 03 Sep 16:30:47 16:33:25 14° 295° (WNW) 16:35:51 437.325
RS-15 03 Sep 16:42:07 16:53:03 81° 302° (WNW) 17:04:29 29.354- 29.394
AIST 2 03 Sep 16:50:09 16:53:55 30° 309° (NW) 16:57:40 435.215
STARS 03 Sep 16:54:07 16:58:33 67° 285° (WNW) 17:02:56 437.465
Cosmos 2499 03 Sep 17:06:24 17:13:48 33° 275° (W) 17:20:33 435.465 / 435.565
JAS-2 03 Sep 17:16:56 17:21:24 15° 276° (W) 17:25:22 435.910
KKS-1 03 Sep 17:21:33 17:24:58 21° 292° (WNW) 17:28:15 437.445
Cubesat XI-IV 03 Sep 17:23:35 17:26:55 18° 64° (ENE) 17:30:26 437.490
HORYU 2 03 Sep 17:31:04 17:33:59 16° 268° (W) 17:36:43 437.375
AO-7 03 Sep 17:53:44 17:59:57 21° 269° (W) 18:05:46 29.400- 29.500
MOZHAYETS 4 03 Sep 17:55:37 18:00:07 59° 285° (WNW) 18:04:35
CUTE-I 03 Sep 18:05:42 18:10:38 42° 71° (ENE) 18:15:39 437.470
CUBESAT XI-V 03 Sep 18:21:45 18:25:14 21° 93° (E) 18:28:52 437.345
O/OREOS (USA 219) 03 Sep 18:33:51 18:38:14 52° 107° (ESE) 18:42:42 437.305
Cosmos 2491 03 Sep 18:45:58 18:51:24 18° 62° (ENE) 18:57:18 435.465 / 435.565
RS-15 03 Sep 18:58:32 19:07:40 27° 330° (NNW) 19:16:53 29.354- 29.394
Cubesat XI-IV 03 Sep 19:01:22 19:06:36 58° 259° (W) 19:11:52 437.490
BRITE-PL 03 Sep 19:20:29 19:24:25 33° 70° (ENE) 19:28:43 437.365/2234.400
STRAND 1 03 Sep 19:28:09 19:32:23 27° 95° (E) 19:36:43 437.568
DOVE 4 03 Sep 19:31:54 19:34:45 17° 65° (ENE) 19:37:54 437.250
AIST 1 03 Sep 19:32:18 19:36:40 83° 264° (W) 19:41:02
GOMX 1 03 Sep 19:33:03 19:36:52 27° 68° (ENE) 19:41:00 467.674
HO-68 03 Sep 19:36:11 19:41:51 27° 62° (ENE) 19:47:44 435.675
CUTE-I 03 Sep 19:46:45 19:50:55 22° 267° (W) 19:54:58 437.470
CINEMA 3 03 Sep 19:54:45 19:56:33 12° 63° (ENE) 19:58:39 145.822/145.860
CUBESAT XI-V 03 Sep 19:58:33 20:02:47 35° 288° (WNW) 20:06:59 437.345
O/OREOS (USA 219) 03 Sep 20:15:11 20:18:03 16° 305° (NW) 20:20:47 437.305
CUTE 1.7 + AOD 2 03 Sep 20:34:37 20:38:43 47° 74° (ENE) 20:42:50 437.475
PRISM 03 Sep 20:35:43 20:39:51 81° 284° (WNW) 20:43:58 437.425
Cosmos 2491 03 Sep 20:40:50 20:49:39 88° 264° (W) 20:58:28 435.465 / 435.565
YUBILEINY 03 Sep 20:45:00 20:53:12 48° 90° (E) 21:01:35 435.215
ZACube-1 03 Sep 20:46:46 20:47:13 10° 64° (ENE) 20:47:58 437.345
CANX-2 03 Sep 20:48:57 20:53:14 79° 77° (ENE) 20:57:32 2200.000
FUNcube-1 03 Sep 20:49:59 20:51:02 11° 64° (ENE) 20:52:21 145.935
CUBEBUG 2 03 Sep 20:57:40 21:01:23 24° 69° (ENE) 21:05:14 437.445
UWE-3 03 Sep 20:58:13 21:01:24 19° 68° (ENE) 21:04:45 435.000/436.395/437.385
BRITE-PL 03 Sep 20:59:41 21:03:07 21° 269° (W) 21:06:38 437.365/2234.400
SEEDS 03 Sep 21:04:27 21:08:42 84° 77° (ENE) 21:12:58 437.485
STRAND 1 03 Sep 21:07:03 21:11:39 33° 290° (WNW) 21:16:09 437.568
DOVE 4 03 Sep 21:07:30 21:12:02 52° 262° (W) 21:16:53 437.250
GOMX 1 03 Sep 21:10:57 21:14:56 29° 266° (W) 21:19:07 467.674
RS-15 03 Sep 21:18:43 21:25:43 17° 5° (N) 21:32:59 29.354- 29.394
COMPASS 1 03 Sep 21:20:48 21:25:00 81° 258° (WSW) 21:29:13 437.405
HO-68 03 Sep 21:22:10 21:29:12 57° 259° (W) 21:36:16 435.675
AAUSAT CUBESAT 2 03 Sep 21:28:01 21:32:12 80° 257° (WSW) 21:36:24 437.432
CINEMA 3 03 Sep 21:28:24 21:33:07 74° 260° (W) 21:38:03 145.822/145.860
Oscar 11 03 Sep 21:28:26 21:32:31 43° 73° (ENE) 21:36:40 145.826/435.025
DELFI C3 03 Sep 21:29:05 21:32:27 26° 71° (ENE) 21:35:53 145.870
AISAT 03 Sep 22:05:42 22:06:20 10° 64° (ENE) 22:07:13 437.250
CUTE 1.7 + AOD 2 03 Sep 22:12:41 22:14:55 13° 270° (W) 22:16:57 437.475
ZACube-1 03 Sep 22:18:24 22:22:58 80° 260° (W) 22:27:36 437.345
BEESAT 3 03 Sep 22:18:49 22:20:45 13° 43° (NE) 22:22:49 437.485
FUNcube-1 03 Sep 22:22:13 22:26:46 75° 259° (WSW) 22:31:23 145.935
Cosmos 2504 03 Sep 22:25:28 22:31:58 28° 84° (E) 22:38:58 435.465 / 435.565
UNISAT 6 03 Sep 22:26:16 22:27:04 11° 87° (E) 22:28:09 437.425
VELOX 1 03 Sep 22:30:18 22:33:20 19° 68° (ENE) 22:36:30 145.980
UWE-3 03 Sep 22:33:14 22:37:37 41° 263° (W) 22:42:04 435.000/436.395/437.385
CUBEBUG 2 03 Sep 22:33:42 22:37:54 33° 265° (W) 22:42:10 437.445
HUMSAT D 03 Sep 22:35:33 22:39:48 60° 75° (ENE) 22:44:06 437.325/437.525
BEESAT 2 03 Sep 22:35:43 22:38:01 15° 44° (NE) 22:40:25 435.950
Cosmos 2491 03 Sep 22:40:28 22:45:25 16° 280° (W) 22:49:47 435.465 / 435.565
YUBILEINY 03 Sep 22:42:20 22:50:17 36° 289° (WNW) 22:58:08 435.215
TIGRISAT 03 Sep 22:51:17 22:54:36 21° 92° (E) 22:57:59 435.000
DX 1 03 Sep 23:01:59 23:06:16 69° 76° (ENE) 23:10:38 434.975-435.025
DELFI C3 03 Sep 23:04:20 23:07:30 21° 266° (W) 23:10:35 145.870
Oscar 11 03 Sep 23:06:21 23:08:58 15° 269° (W) 23:11:25 145.826/435.025
UKube-1 03 Sep 23:09:07 23:13:25 75° 76° (ENE) 23:17:45 .
ANTELSAT 03 Sep 23:09:16 23:13:22 34° 96° (E) 23:17:24 437.575/2403.000
NANOSAT C BR1 03 Sep 23:12:33 23:13:50 11° 89° (E) 23:15:22 145.865
QB50P2 03 Sep 23:13:51 23:15:40 13° 90° (E) 23:17:42 145.880/145.840
50 SAT 03 Sep 23:17:30 23:21:27 77° 77° (ENE) 23:25:24 437.505
QB50P1 03 Sep 23:26:24 23:29:13 18° 92° (E) 23:32:11 145.935-145.965
CUBEBUG 1 03 Sep 23:28:00 23:32:09 48° 74° (ENE) 23:36:21 437.445
RS-15 03 Sep 23:32:54 23:43:14 35° 38° (NE) 23:54:07 29.354- 29.394
AIST 2 03 Sep 23:35:36 23:37:37 13° 42° (NE) 23:39:47 435.215
CUSAT 1 03 Sep 23:36:44 23:40:24 33° 88° (E) 23:45:12 437.405
ESTCUBE 1 03 Sep 23:37:25 23:41:53 78° 76° (ENE) 23:46:23 437.505/2401.250
AISAT 03 Sep 23:37:57 23:42:21 73° 257° (WSW) 23:46:48 437.250
SO-50 03 Sep 23:50:06 23:53:52 24° 112° (ESE) 23:57:51 436.795
AUBIESAT-1 03 Sep 23:53:54 23:57:34 46° 104° (ESE) 00:00:56 437.475
BEESAT 3 03 Sep 23:55:08 23:59:08 64° 242° (WSW) 00:03:02 437.485
UNISAT 6 03 Sep 23:59:54 00:04:25 64° 285° (WNW) 00:08:47 437.425
TISAT 1 04 Sep 00:01:32 00:04:27 19° 68° (ENE) 00:07:31 437.305
M-CUBED/EXP-1 PRIME 04 Sep 00:02:35 00:06:27 78° 107° (ESE) 00:09:58 437.505
VELOX 1 04 Sep 00:05:33 00:09:38 37° 262° (W) 00:13:44 145.980
HUMSAT D 04 Sep 00:14:51 00:15:59 11° 272° (W) 00:16:51 437.325/437.525
